Theta_e
316 317 318 319 321 324 324 323 322 324 323 316 317 319 322 326 326 326 326 328 330 331 330 331 332 331 332 332 332 332 332 335 334 332 337 340 338 338 336 329 327 331 333 333 336 335 335 335 334 335 334 333 334 332 332 333 334 334 334 334 333 332 332 333 334 334 334 333 333 334 334 334 335 335 336 335 336 335 335 334 334 335 334 334 333 332 332 329 330 331 331 331 329 327 325 324 322
317 318 319 320 322 325 323 322 320 319 318 314 317 320 323 326 325 326 327 329 331 329 330 331 331 330 330 331 330 331 333 334 336 337 338 337 336 338 334 327 328 332 332 332 335 337 337 334 332 335 334 333 335 334 332 332 333 334 334 334 333 332 333 334 334 333 334 334 334 334 334 335 335 335 335 335 335 335 335 334 334 334 334 335 334 334 331 328 331 331 330 329 325 322 320 319 319
317 319 322 322 324 325 323 321 319 315 314 314 317 322 324 325 326 327 328 329 330 329 331 331 330 331 329 330 330 331 335 335 337 336 336 337 336 336 332 327 329 332 332 332 334 337 337 331 331 334 334 334 335 335 333 331 332 333 334 333 332 333 333 334 333 333 333 333 334 334 335 335 335 335 335 335 335 335 335 334 334 335 334 335 334 333 331 329 331 330 330 328 325 323 320 319 319
317 320 322 323 324 325 323 322 320 315 314 313 315 323 324 325 328 328 330 330 330 330 331 331 331 331 330 332 330 331 337 337 339 337 336 338 336 335 331 327 330 333 332 332 333 337 336 329 330 334 334 334 333 333 334 333 332 331 331 330 331 332 332 333 333 333 334 333 333 334 335 334 334 334 335 335 334 334 334 334 335 335 334 334 334 333 332 331 331 331 330 327 324 323 320 320 321
319 322 322 324 325 326 323 321 321 317 315 315 316 322 324 325 328 329 331 330 330 331 330 330 332 332 330 332 331 334 337 337 338 337 337 337 335 334 330 327 331 332 332 332 333 337 335 328 328 333 333 332 332 332 333 333 332 330 328 328 330 333 331 331 333 333 334 333 333 334 334 334 334 334 334 334 334 333 333 333 333 334 334 334 334 332 331 331 330 329 327 324 322 321 321 322 322
320 323 323 324 325 324 322 317 317 316 319 321 319 322 323 325 327 329 330 329 329 330 330 331 332 331 331 333 333 336 337 337 339 338 338 337 334 333 330 327 330 331 332 333 333 336 334 328 328 331 331 331 332 332 331 332 333 332 329 329 332 333 330 330 332 333 334 333 333 333 333 333 333 333 333 334 334 334 333 332 332 333 334 334 332 331 330 330 329 327 325 323 322 322 322 322 321
321 324 325 325 325 324 323 316 316 318 321 323 320 321 323 325 328 329 330 329 329 329 329 331 330 329 333 334 334 336 336 339 339 338 338 336 334 333 329 327 330 331 332 333 333 335 333 329 327 329 331 331 332 332 331 331 333 332 331 332 333 333 332 331 332 333 333 333 333 333 333 333 333 332 332 333 334 334 333 333 333 334 334 332 331 330 331 330 329 328 327 325 323 323 322 321 319
321 324 325 325 327 327 324 318 318 321 321 321 321 321 322 326 327 328 329 329 329 329 329 331 330 330 332 332 336 336 336 338 339 338 337 335 333 331 328 328 331 331 332 332 333 335 332 328 327 328 330 331 332 332 332 332 332 333 333 333 333 332 332 331 332 333 333 333 333 333 333 333 333 332 332 332 333 333 333 332 333 333 332 331 330 330 330 330 330 329 327 324 323 322 320 319 318
322 325 324 326 328 328 324 320 319 322 322 321 321 320 321 326 327 327 328 328 328 328 329 330 331 331 330 331 336 336 336 338 338 337 336 334 332 330 328 329 331 331 332 332 334 335 331 329 327 328 331 331 332 332 333 333 332 333 333 333 332 331 331 331 332 333 332 332 332 331 330 331 332 332 331 331 332 332 332 332 332 332 332 331 331 331 330 330 329 328 326 323 322 320 319 319 319
323 325 326 328 328 324 322 321 319 321 322 321 321 319 321 325 327 327 327 327 327 328 330 330 330 330 328 331 336 337 337 337 337 336 335 334 331 329 329 330 331 331 332 332 333 334 333 330 327 328 331 331 331 332 332 332 333 333 333 333 332 332 331 330 331 331 331 331 331 330 329 330 331 332 331 331 332 332 332 332 333 332 331 331 331 330 330 330 329 327 324 322 321 319 319 320 320
325 324 326 327 325 321 322 321 318 321 322 320 321 319 320 324 327 328 327 327 327 329 331 330 330 329 327 331 337 337 337 337 337 336 335 333 329 329 329 330 330 330 332 332 332 334 334 331 328 328 330 331 331 330 330 330 332 333 333 333 332 332 331 330 330 330 330 330 330 330 330 330 331 331 330 331 332 331 331 332 332 332 331 331 331 330 330 329 328 325 323 322 321 320 320 320 320
325 325 326 326 325 324 325 323 319 320 322 320 321 320 320 324 327 327 327 327 326 328 330 330 328 328 326 330 336 336 336 337 337 336 335 332 329 329 329 331 331 331 332 331 332 334 334 332 330 329 330 331 330 329 329 329 330 331 332 332 332 331 330 330 329 329 329 329 329 330 331 330 329 330 330 330 331 331 331 331 331 331 331 331 331 330 329 328 326 324 323 322 321 321 321 321 321
326 327 327 327 327 328 327 325 322 319 320 321 322 321 320 323 327 326 326 326 325 327 328 329 327 326 327 330 336 336 336 337 336 335 334 331 329 329 329 330 331 331 331 331 332 334 334 333 332 331 330 330 329 328 328 328 328 329 330 331 332 331 330 329 327 327 328 328 329 331 331 329 328 328 329 329 330 331 330 330 330 331 331 330 330 329 327 326 325 324 324 323 322 322 321 321 321
326 326 326 328 329 329 327 327 325 318 317 322 323 321 321 324 326 326 325 325 325 327 328 329 326 325 326 330 335 335 336 337 337 334 334 331 329 329 329 329 330 331 330 330 331 333 335 334 332 332 330 330 330 329 329 328 327 328 329 329 330 330 329 329 327 325 327 328 329 331 330 327 328 328 328 329 329 330 329 329 329 329 330 330 329 328 326 326 325 325 324 324 323 322 322 322 321
324 325 326 328 328 327 327 328 327 319 317 323 323 321 322 324 326 326 326 325 326 327 328 329 327 325 324 325 331 336 337 337 336 334 333 332 329 329 330 329 330 330 329 330 330 331 334 334 333 333 331 331 331 330 330 329 326 325 326 327 328 329 328 328 328 325 326 328 329 330 329 327 328 329 329 328 327 328 328 328 328 328 329 329 329 328 326 326 326 325 325 324 324 323 323 322 322
323 324 326 328 326 326 327 328 328 321 319 323 322 322 324 323 325 325 324 324 326 326 325 328 328 326 326 327 332 338 337 337 336 334 333 331 330 329 330 329 329 329 329 329 330 331 333 334 334 333 332 331 331 331 331 330 326 324 325 325 325 327 326 325 326 326 326 328 328 327 327 327 326 327 328 327 326 327 327 327 327 327 327 328 328 327 326 326 325 325 325 324 324 324 323 322 322
322 323 326 326 325 326 327 330 328 322 320 322 321 322 324 323 323 323 322 323 325 326 325 328 327 327 329 330 336 339 337 336 335 333 332 330 329 329 329 328 329 329 329 329 329 330 331 333 334 333 333 332 332 331 331 331 327 325 326 325 323 324 325 324 324 325 326 329 329 326 326 328 327 326 327 326 325 325 326 325 325 326 326 327 327 326 326 326 326 326 325 325 324 324 323 324 323
321 324 326 325 328 328 329 331 328 323 320 320 322 323 324 324 323 322 322 323 325 325 325 328 328 328 331 330 336 339 336 335 334 333 331 329 328 328 328 328 329 329 328 329 328 329 329 331 332 332 334 333 333 332 332 332 328 326 327 327 324 322 324 324 324 325 327 329 329 327 327 328 327 327 328 327 325 324 325 326 324 324 325 325 326 325 325 326 326 325 325 325 324 324 324 325 325
321 326 327 327 331 328 327 327 324 322 319 318 321 323 325 324 323 322 324 324 325 325 325 327 327 328 330 330 336 337 335 335 333 333 331 329 328 327 328 328 329 329 328 328 328 328 328 329 330 331 332 333 333 333 333 333 330 329 330 329 326 324 324 324 325 327 328 329 329 327 327 327 327 327 327 327 326 323 323 326 325 324 324 325 326 325 325 325 326 325 325 325 324 324 325 325 325
322 325 327 330 330 324 322 322 320 319 318 317 319 321 324 324 323 322 323 324 325 325 325 327 327 329 330 331 337 336 335 335 333 334 332 329 328 327 328 328 328 329 328 328 328 328 328 328 329 329 330 332 332 332 332 332 331 330 330 329 328 327 325 325 326 327 327 328 328 327 327 327 327 327 326 325 324 323 322 324 325 325 325 325 325 325 326 325 325 325 325 325 324 325 325 325 325
325 324 327 330 328 324 321 320 318 317 316 317 317 319 322 323 322 322 323 324 324 325 324 326 326 327 331 332 336 336 335 335 334 335 333 330 329 328 328 328 328 329 329 329 329 328 328 328 328 328 330 330 331 331 332 331 330 330 330 329 328 328 327 326 327 327 327 327 327 327 326 326 326 326 325 323 324 324 324 324 325 325 325 325 323 324 326 326 326 326 325 325 325 325 325 325 325
326 325 327 326 323 325 321 317 316 315 315 316 316 317 320 321 322 322 323 323 324 324 323 324 323 325 332 333 335 336 335 336 335 335 335 332 329 328 328 328 327 329 329 329 329 328 328 328 328 328 328 329 330 330 331 331 330 330 329 329 328 328 328 328 328 328 327 327 327 326 326 326 325 325 325 324 324 325 325 324 324 324 325 325 323 324 326 325 326 326 325 325 325 325 325 325 325
326 326 326 324 322 322 319 315 314 314 315 316 317 317 318 319 320 321 322 324 323 322 321 323 322 326 333 334 335 335 334 336 336 336 336 335 332 330 328 327 327 328 329 329 329 329 328 328 328 328 327 328 329 329 329 330 330 329 329 329 328 327 328 328 328 328 327 327 327 327 326 326 325 324 324 322 322 323 325 325 324 324 324 325 324 325 326 325 325 325 325 325 324 325 325 325 325
326 329 325 323 322 319 317 315 313 313 315 316 316 316 316 317 318 320 321 322 322 321 321 321 323 329 334 334 334 335 335 337 336 336 336 336 335 332 328 327 327 329 329 328 329 329 329 328 328 328 328 327 328 328 328 328 328 328 328 329 327 327 327 328 329 328 328 327 327 326 325 325 325 324 323 320 319 321 323 324 324 323 324 325 324 324 325 325 325 325 325 324 324 324 324 325 324
326 330 326 320 318 316 315 313 313 313 314 314 315 315 317 317 317 318 318 319 320 321 321 320 323 330 332 332 333 334 335 337 337 337 336 336 336 335 330 328 328 329 329 328 329 329 328 328 328 328 328 328 328 327 327 327 327 327 327 328 327 327 327 328 329 328 328 327 326 324 323 325 325 324 324 322 319 319 320 320 320 320 321 323 322 322 323 325 326 325 326 325 325 325 324 325 324
327 330 327 320 317 316 314 313 313 313 313 313 314 316 316 316 315 316 317 317 319 321 321 320 323 329 330 331 333 333 334 336 337 337 336 336 336 336 333 330 329 328 328 328 329 329 328 328 328 328 328 328 328 327 328 327 327 327 327 327 327 327 326 327 328 328 329 328 327 324 321 324 326 325 324 323 320 318 316 313 312 314 316 316 316 319 320 322 326 326 326 326 325 324 323 323 321
325 329 327 321 319 316 315 315 314 313 313 313 314 317 317 315 315 317 319 317 318 320 321 321 322 326 328 329 332 334 334 336 336 337 337 336 336 336 334 331 330 329 328 328 329 329 328 328 328 328 328 328 328 328 328 328 328 327 327 328 328 327 327 327 327 327 328 328 329 326 320 321 326 326 325 325 323 321 318 314 315 316 315 311 309 317 318 319 325 326 326 326 325 323 321 321 320
323 327 324 321 319 317 315 315 314 313 314 313 314 317 316 315 315 317 319 317 319 320 321 323 322 322 325 327 331 333 334 336 336 337 337 336 336 336 335 333 331 329 329 329 329 328 328 328 328 328 328 329 328 328 328 328 328 328 328 328 328 328 327 327 326 325 326 327 328 328 323 320 324 327 327 327 326 326 324 322 322 322 320 314 309 312 313 312 320 325 324 322 320 320 320 322 322
322 323 324 324 321 320 318 316 316 315 315 314 314 317 317 315 315 317 318 317 319 320 321 324 322 321 324 327 330 332 334 335 336 337 336 336 335 335 335 335 333 331 330 329 328 329 328 327 327 327 328 328 327 328 328 328 328 328 328 328 328 328 328 327 326 324 324 325 326 327 326 323 324 327 328 328 327 327 327 326 326 325 324 321 317 314 312 312 317 321 320 316 317 320 322 324 324
321 322 325 327 324 324 323 320 318 316 316 314 316 320 322 320 317 316 317 318 319 319 322 324 322 322 323 326 330 332 333 335 336 337 336 336 335 335 335 335 334 333 332 331 329 329 328 326 326 327 327 327 326 326 328 328 328 329 328 328 328 329 328 327 326 324 323 323 324 324 324 324 324 326 328 328 327 327 327 327 327 326 326 325 323 320 319 320 322 323 323 321 321 323 324 325 325
322 323 324 326 325 326 327 324 319 318 317 313 318 323 327 328 323 317 317 318 319 319 321 323 323 323 324 328 330 330 332 335 336 336 336 336 336 336 335 335 335 334 334 333 331 330 329 327 327 326 325 326 325 324 327 328 328 329 328 328 328 328 327 327 326 325 324 322 323 323 322 322 323 325 327 328 328 327 327 327 327 327 327 326 326 325 324 325 325 325 325 325 325 325 325 325 325
323 323 324 326 324 326 329 324 319 320 317 312 319 324 327 332 327 318 317 318 319 319 319 321 322 323 325 328 330 330 331 334 335 335 336 336 336 336 335 335 335 335 334 334 333 332 331 329 327 326 325 325 325 322 323 327 329 329 328 327 327 326 326 326 325 325 326 324 323 323 321 321 322 323 325 327 328 328 328 327 327 327 327 327 326 326 326 326 326 326 326 326 326 326 326 326 325
322 321 323 325 323 323 323 321 319 321 317 312 318 324 326 329 323 317 316 317 317 318 318 319 321 323 325 327 328 328 329 331 334 334 335 336 336 336 336 335 335 335 334 334 334 333 332 331 329 328 327 326 326 324 322 325 328 329 329 326 325 326 326 326 325 326 328 326 324 323 322 322 321 322 323 324 326 328 328 327 328 328 328 327 326 326 326 326 327 327 327 326 326 326 326 326 325
322 321 322 323 323 322 320 318 318 318 316 314 316 319 323 324 319 315 314 316 317 317 318 318 320 323 325 327 327 328 328 330 332 334 334 335 336 336 335 335 335 335 335 334 335 334 334 332 331 330 329 328 327 327 324 324 326 328 329 327 325 326 326 326 325 326 326 326 325 325 324 324 323 322 323 323 325 327 328 327 328 328 328 328 327 327 327 327 327 327 327 326 326 326 325 325 325
322 322 321 322 322 322 322 319 317 316 316 317 316 316 318 320 319 317 314 314 316 317 317 317 318 321 323 326 326 327 328 329 331 333 334 334 336 336 335 335 335 335 335 334 335 335 334 333 333 331 330 330 329 328 327 325 326 328 329 328 327 327 326 327 326 326 326 326 327 326 326 326 325 324 324 324 324 326 327 327 328 328 329 328 327 327 327 327 327 326 326 326 326 325 325 324 324
323 323 322 322 321 321 323 320 316 316 317 317 318 317 318 319 320 322 318 314 315 317 316 317 318 318 319 321 323 325 327 328 330 332 334 335 335 335 335 335 335 335 334 334 334 335 334 334 334 333 332 332 331 330 329 328 328 328 329 329 329 329 328 328 327 327 327 328 328 327 327 327 327 327 325 325 325 325 327 328 328 328 329 328 327 327 327 326 326 326 326 326 326 325 325 324 324
324 323 322 322 322 322 324 320 315 315 316 317 319 319 319 320 320 322 321 317 316 316 316 316 317 317 316 318 320 322 323 325 328 331 332 334 335 335 335 335 335 335 334 334 334 334 334 334 334 333 332 332 332 331 330 330 329 329 329 329 330 330 329 328 328 328 327 328 329 328 329 329 329 329 328 327 326 326 327 328 328 328 329 328 327 327 326 326 326 326 326 326 325 325 325 324 324
325 323 322 322 323 323 324 321 316 315 317 319 320 320 320 320 319 319 320 319 317 317 317 317 317 317 317 317 318 319 321 323 327 330 332 334 335 335 335 335 335 335 335 334 334 334 334 334 333 333 332 332 331 332 331 331 330 330 330 330 330 330 330 329 329 328 327 327 328 328 329 330 330 330 329 328 329 329 328 328 329 328 329 328 327 327 326 326 326 326 326 325 325 325 324 323 324
326 325 324 323 324 324 323 320 318 316 319 323 324 323 322 322 321 321 320 319 319 318 317 317 317 317 317 318 318 319 320 322 325 327 329 332 334 335 335 335 335 334 334 334 334 334 334 334 334 333 332 332 331 331 332 332 331 331 331 331 331 331 331 330 330 329 328 328 328 328 329 330 331 330 330 329 330 331 330 329 328 328 329 329 327 327 326 326 326 326 326 326 325 324 324 323 323
326 326 325 324 325 326 324 320 318 317 319 321 321 321 322 322 322 322 323 322 320 319 318 317 317 317 317 318 318 318 319 321 322 322 324 328 331 333 334 334 334 334 334 334 333 333 333 333 334 333 333 332 332 332 331 332 332 331 331 332 332 332 332 331 331 330 330 329 328 328 329 330 331 331 331 330 330 331 331 330 329 328 329 329 328 328 327 327 326 327 326 326 325 325 324 323 323
328 327 326 325 326 327 324 320 317 316 317 317 319 322 323 324 324 324 324 323 322 320 318 317 316 316 317 318 318 319 318 319 320 320 320 322 327 331 332 333 333 334 334 333 333 333 333 333 333 333 333 333 333 332 331 331 332 332 332 332 332 332 332 332 332 332 331 330 329 329 329 330 330 331 331 330 330 330 331 330 329 329 329 329 329 328 328 327 327 327 326 326 326 325 324 323 323
328 328 327 326 326 328 324 320 319 321 322 318 319 325 325 324 326 326 325 325 324 321 318 317 317 316 317 317 317 318 319 319 320 319 319 320 324 328 330 331 332 333 333 333 333 333 333 333 333 333 333 333 333 333 332 331 332 332 332 332 332 332 333 333 333 332 332 331 330 330 329 329 330 330 331 330 330 330 330 330 330 329 329 329 329 329 328 328 327 327 326 326 326 325 324 324 324
327 327 327 327 327 328 325 323 324 327 327 318 316 323 325 322 323 325 325 325 324 323 320 319 318 318 316 316 316 317 318 318 319 319 318 319 321 324 327 329 331 332 332 333 333 333 333 333 333 333 333 333 333 333 333 331 331 332 332 332 332 332 332 333 333 333 332 331 331 330 330 330 330 330 330 330 330 330 329 329 329 329 329 329 329 329 328 328 327 327 326 326 326 325 324 325 324
328 326 326 327 326 327 327 326 326 327 325 319 315 319 323 322 322 323 323 323 324 322 322 320 320 320 318 317 316 317 317 318 320 320 318 317 319 321 323 326 329 330 330 332 332 333 333 333 333 333 333 333 333 334 333 332 331 331 332 332 332 332 332 333 333 332 332 332 331 331 331 330 330 330 329 329 329 329 329 329 329 329 329 329 329 329 329 328 327 327 327 326 326 325 325 325 325
325 324 326 326 326 327 327 326 327 324 322 324 321 318 323 324 321 322 322 321 322 322 321 321 320 320 320 318 317 317 317 318 319 320 319 318 318 318 318 321 324 327 329 330 331 332 333 333 333 333 333 333 333 333 333 332 331 330 331 332 332 332 332 332 332 332 331 331 330 331 331 330 330 330 329 329 328 328 329 328 328 328 328 329 329 329 329 328 327 327 327 326 325 325 325 325 325
321 321 323 323 323 323 323 325 325 321 321 325 325 320 323 325 321 321 321 319 320 322 321 322 321 320 320 319 317 317 317 319 320 319 319 320 319 317 317 317 319 323 326 328 330 332 332 333 333 332 333 333 333 333 332 332 332 331 331 332 331 332 332 331 331 331 331 331 330 330 330 330 330 330 329 328 327 328 328 328 327 328 328 328 328 329 329 329 328 327 327 326 326 326 325 325 324
319 319 320 320 320 319 320 320 319 323 326 326 324 321 322 324 322 320 322 320 319 321 321 322 322 321 320 319 319 318 316 318 321 319 318 319 319 317 316 315 316 317 321 325 327 329 330 332 332 332 332 332 332 332 332 332 332 331 331 331 331 331 331 331 330 331 331 330 330 330 330 330 330 330 329 328 328 327 328 328 327 327 327 328 328 328 329 329 328 327 327 327 326 325 325 325 324
319 321 321 322 321 319 321 319 318 327 331 323 319 321 321 322 322 320 323 322 319 319 321 322 322 322 321 320 319 319 318 317 320 321 320 318 317 316 315 315 314 314 316 319 321 323 327 329 329 330 331 331 332 332 332 332 332 332 331 331 331 331 331 331 330 330 330 330 330 330 330 330 330 330 329 328 328 328 328 327 327 327 326 327 327 328 329 329 328 328 327 327 327 326 325 325 324
321 322 323 327 326 325 328 324 321 328 328 316 313 318 319 320 320 320 321 321 318 318 319 320 320 320 321 321 319 320 320 320 320 322 321 318 316 315 314 313 313 313 313 314 314 316 320 324 326 328 329 329 330 331 331 331 331 332 331 331 331 331 331 331 331 330 330 330 330 330 330 330 330 330 329 329 328 327 328 327 327 327 326 325 326 327 328 328 328 328 328 327 327 326 326 325 325
323 324 326 329 328 329 333 329 325 329 324 313 311 316 319 319 318 319 320 320 320 318 318 318 318 318 318 319 319 319 320 319 319 319 318 316 316 316 314 313 312 312 312 312 312 312 313 317 321 324 325 326 328 329 330 331 331 331 331 331 331 330 330 330 331 331 330 330 330 330 330 330 329 329 329 329 328 327 327 327 327 327 326 325 326 326 326 326 327 327 327 327 327 326 326 325 324
323 324 325 328 327 329 333 330 329 329 321 313 314 318 321 320 317 316 316 317 317 316 315 315 315 315 316 316 314 314 314 314 315 315 315 315 316 317 316 315 314 313 313 312 311 310 310 312 316 319 320 323 325 327 328 329 330 330 330 330 330 329 329 329 330 330 330 330 330 329 330 329 329 329 329 329 328 327 327 327 327 327 327 326 326 326 326 326 325 325 326 326 326 326 325 325 324
320 321 325 327 325 326 327 324 322 323 319 316 315 318 320 319 318 317 315 315 314 314 314 313 314 314 315 315 313 313 312 312 314 315 315 316 317 316 315 315 315 314 313 312 311 310 309 310 313 315 317 319 322 324 326 328 328 329 329 329 329 328 328 328 328 329 329 329 329 329 329 328 328 328 329 329 328 327 327 327 327 327 327 327 326 326 326 327 326 325 324 325 325 325 325 324 324
318 321 325 324 321 322 324 320 315 317 323 323 317 316 317 316 318 318 318 317 315 314 314 313 313 314 315 316 315 314 314 314 316 318 319 318 317 315 315 315 315 314 314 313 312 310 309 310 312 313 314 317 319 322 325 326 327 328 328 328 328 327 327 327 327 327 328 328 329 329 329 328 328 328 328 328 328 327 327 327 327 327 327 327 327 326 326 327 326 325 324 325 325 325 325 324 324
318 321 323 320 319 321 321 322 320 319 325 325 319 319 318 317 319 319 318 319 317 315 314 313 313 313 315 316 316 316 316 317 318 318 317 316 314 314 313 313 314 314 314 314 313 311 310 310 310 311 313 315 317 319 322 324 325 326 326 327 327 327 327 327 327 327 328 328 328 328 328 328 327 327 327 328 327 327 327 327 328 328 327 327 327 327 327 326 326 325 325 325 325 325 324 323 324
317 320 320 319 324 323 320 323 325 323 325 325 320 318 317 316 317 317 317 319 317 317 316 315 313 313 314 316 316 316 317 319 318 315 314 314 313 313 312 312 313 313 312 311 312 311 309 309 309 310 312 314 316 318 320 322 323 324 324 325 326 326 326 326 327 327 327 327 328 328 328 328 328 327 327 327 327 327 327 327 327 328 327 327 327 327 327 326 326 325 324 324 324 324 324 324 323
313 317 319 320 324 324 323 323 324 324 324 324 322 318 316 317 317 317 318 317 317 317 317 316 314 313 314 314 315 318 320 320 317 315 314 314 314 313 311 311 312 311 309 308 309 309 310 310 309 309 310 312 315 317 319 321 322 323 324 324 325 325 325 326 326 327 327 327 328 328 328 328 328 327 326 326 326 326 327 327 327 327 327 327 327 327 327 326 325 325 324 323 323 324 324 324 323
313 317 320 321 320 319 321 323 323 322 322 322 323 321 317 315 315 317 318 317 317 317 317 318 316 314 315 314 317 321 320 318 316 314 314 314 314 313 311 309 308 308 308 308 309 310 311 311 310 309 309 310 312 314 317 319 320 322 323 324 324 324 325 325 326 326 326 327 327 327 328 328 327 327 326 326 326 326 326 327 327 327 327 328 328 327 327 326 325 324 324 323 323 324 324 323 323
316 317 320 321 320 319 321 325 323 320 320 319 319 321 318 313 313 314 315 315 315 315 316 317 316 314 315 316 318 318 317 315 314 312 312 313 314 314 312 310 309 310 310 310 311 311 311 311 311 310 310 310 310 311 313 316 318 320 321 322 323 323 323 324 325 326 326 326 327 327 327 327 327 327 326 326 325 325 325 326 327 328 328 328 328 327 326 325 324 323 323 323 323 323 323 321 321
Wind_Speed
6 7 7 9 8 8 7 4 4 3 4 3 2 1 4 4 2 4 6 5 5 6 4 5 6 4 2 3 4 6 9 8 5 2 2 6 12 12 10 13 16 17 16 14 12 12 14 15 15 12 10 12 15 16 16 15 13 12 15 16 14 14 13 13 14 13 14 14 13 13 14 15 14 14 15 16 16 16 17 17 17 18 17 17 18 18 18 18 19 20 19 20 20 20 21 21 20
6 7 7 8 6 7 3 1 5 2 4 2 3 2 6 5 3 5 6 4 6 7 5 6 6 4 3 4 2 2 7 10 8 6 7 10 14 11 11 14 15 16 15 14 13 13 13 14 16 14 11 13 14 16 16 15 13 12 15 16 14 14 13 13 14 13 13 14 13 13 14 14 14 14 15 16 15 16 16 17 17 17 15 16 18 18 17 17 19 19 19 20 20 21 21 21 20
5 7 7 7 5 5 3 3 5 3 3 1 4 4 5 4 3 6 7 6 9 9 6 7 5 3 0 2 0 2 5 8 9 9 8 11 11 10 12 14 15 15 14 14 13 13 13 13 16 15 13 13 13 14 15 14 14 12 13 14 14 13 13 13 13 12 13 13 13 13 13 14 14 14 14 15 15 15 16 16 17 16 15 16 17 17 17 18 19 19 19 19 20 20 20 19 19
4 6 7 7 5 3 3 4 4 4 3 1 3 5 4 3 5 9 9 8 9 8 6 7 5 1 3 1 3 2 6 7 8 8 8 8 9 13 14 14 15 14 13 12 12 13 13 14 16 16 13 13 13 14 13 13 14 13 12 13 13 12 13 13 12 12 12 13 13 12 13 14 14 14 14 14 14 14 15 15 15 15 14 16 16 16 17 18 18 18 18 18 18 18 18 18 18
4 5 6 7 5 1 3 3 3 5 2 3 2 5 4 3 7 9 9 8 7 6 6 7 4 3 1 4 3 1 5 6 7 8 9 8 11 16 14 15 14 13 12 11 12 12 13 15 16 16 14 12 12 14 13 13 13 12 12 14 13 12 13 12 11 12 12 12 12 12 12 13 13 13 14 13 13 14 15 15 15 14 14 16 16 16 17 17 17 17 18 18 17 17 17 17 17
5 5 5 5 3 1 3 3 4 4 2 4 3 4 4 4 7 9 9 8 6 3 3 6 2 4 3 3 4 5 4 4 6 7 9 11 13 15 15 14 13 13 12 11 12 11 13 15 16 16 14 12 12 12 11 12 12 12 14 14 13 13 12 11 12 13 12 12 13 12 12 12 12 12 13 12 13 14 15 15 15 14 14 14 15 16 16 16 16 16 17 16 16 16 16 16 17
5 4 3 4 2 1 5 4 4 2 4 3 4 4 3 6 7 9 10 7 5 3 3 4 2 3 4 5 4 6 6 4 5 7 9 12 13 14 14 13 13 13 12 11 11 11 13 14 15 15 14 13 12 11 10 10 10 11 14 13 12 14 12 11 12 12 11 12 13 13 12 12 12 12 12 12 13 13 14 14 14 14 14 14 14 16 15 15 15 15 16 16 16 15 15 16 16
3 4 1 3 4 3 5 4 3 1 4 3 3 4 2 5 7 8 9 7 6 6 6 5 4 3 4 4 2 6 6 6 7 9 12 14 14 14 13 12 13 13 11 11 11 12 13 13 14 14 14 13 12 11 9 10 9 10 12 12 13 13 13 11 11 12 11 11 12 12 12 12 12 11 12 12 12 12 13 13 13 13 13 13 14 15 15 15 14 14 15 15 15 15 15 16 16
3 3 1 3 5 3 5 4 2 0 3 3 3 3 2 3 6 7 8 6 5 7 8 7 6 3 5 5 4 7 6 7 9 11 12 13 14 14 12 11 12 12 11 11 11 12 12 14 14 14 15 13 12 10 10 9 10 11 11 12 13 13 12 11 11 11 11 11 11 11 12 12 11 11 11 11 12 12 12 13 13 13 13 13 14 14 14 14 13 13 14 14 14 15 15 16 16
3 3 3 4 5 4 5 4 2 2 4 3 3 4 3 5 6 7 8 6 6 6 7 6 6 3 2 6 6 5 6 8 10 11 11 12 14 13 11 10 11 12 12 11 11 11 11 14 14 14 15 13 12 10 11 10 9 10 11 11 12 12 11 11 11 11 10 11 11 11 12 12 11 12 12 11 12 12 12 12 12 12 12 12 12 12 13 12 12 12 13 14 14 14 14 15 15
4 3 2 4 5 5 5 4 3 3 4 4 3 5 4 6 7 6 7 6 6 6 7 6 6 5 3 4 5 5 8 10 11 12 12 13 13 12 11 10 11 11 11 11 11 11 11 13 14 14 14 14 12 10 10 10 9 9 10 11 11 12 12 11 12 11 10 11 12 11 11 11 11 12 12 11 11 11 11 12 11 12 11 11 11 11 11 11 11 12 12 13 13 13 13 14 14
5 4 3 5 6 6 4 2 3 3 4 5 5 6 4 8 8 7 8 6 6 6 8 8 2 4 7 3 4 7 10 10 12 14 13 13 13 12 11 10 11 11 11 11 11 12 12 13 14 14 14 14 12 10 10 11 10 9 9 11 11 12 12 12 12 11 10 10 11 11 11 11 11 11 11 12 12 11 11 11 11 11 11 11 10 10 10 10 11 11 11 11 12 12 12 12 13
6 4 5 5 5 5 2 2 2 2 4 5 5 6 5 9 10 8 8 6 7 6 7 9 2 2 6 3 6 8 10 12 14 14 14 13 12 11 11 10 11 11 11 11 11 11 12 12 13 12 14 13 11 9 10 10 10 10 9 10 11 11 11 11 11 10 10 10 10 10 11 11 10 10 11 12 13 12 11 11 11 11 10 9 8 8 9 9 10 10 10 10 10 10 11 11 12
4 4 5 5 4 5 3 3 2 4 4 6 7 6 7 7 8 7 6 7 7 3 4 5 2 3 4 4 6 7 10 15 16 15 14 12 12 11 10 11 11 11 11 11 11 11 11 12 12 12 13 11 10 9 10 10 9 10 9 8 9 9 9 9 8 9 10 10 9 9 9 9 9 10 10 10 11 11 10 9 10 10 9 8 7 6 7 8 8 8 8 8 8 9 9 9 10
3 3 4 6 5 5 5 5 2 5 4 8 5 5 8 4 4 6 5 5 4 5 5 3 2 2 1 3 3 8 15 18 18 17 14 12 12 11 10 11 11 11 11 11 11 11 12 11 11 12 12 11 10 9 9 9 8 9 10 8 8 8 8 8 8 8 10 9 8 8 7 8 9 9 8 8 9 10 9 8 8 8 8 8 6 6 7 7 7 7 7 6 7 7 7 8 8
3 3 4 6 6 6 6 6 4 5 3 8 4 5 8 4 3 5 0 1 4 6 4 3 4 2 3 3 4 13 20 20 19 18 15 13 13 11 11 11 11 11 10 11 11 12 12 11 12 12 12 12 11 10 9 9 8 8 10 8 8 9 7 7 8 8 10 9 7 7 6 6 7 7 6 7 8 9 8 7 7 8 8 7 6 7 7 6 6 5 5 5 5 6 6 7 7
2 4 6 6 7 7 6 7 6 3 5 8 6 6 8 7 5 3 2 1 2 6 5 3 4 1 5 6 7 17 22 20 20 19 16 14 13 12 11 11 11 11 11 11 12 12 12 12 12 12 12 12 11 10 10 9 9 8 8 7 7 10 9 7 8 8 9 8 7 7 6 5 5 5 4 5 5 7 8 7 7 7 7 7 6 7 8 7 6 4 4 4 5 5 6 6 6
3 6 7 7 8 7 6 8 5 2 5 6 6 7 6 7 8 4 3 6 5 5 7 5 3 3 6 6 10 17 19 19 21 20 17 15 14 13 12 12 12 12 12 12 13 13 13 13 12 12 12 13 12 11 11 10 9 8 8 7 6 8 10 9 7 8 8 8 8 7 7 6 6 6 5 5 4 6 8 8 7 6 5 6 5 5 7 6 5 4 3 2 3 5 7 5 5
5 6 7 8 7 3 3 4 3 2 4 6 6 7 5 5 9 7 6 9 9 7 8 8 7 7 7 8 13 17 18 19 20 20 18 17 16 14 14 13 13 13 13 13 14 14 14 14 14 13 13 13 13 12 11 10 9 9 9 7 7 7 9 10 8 8 8 8 8 7 7 7 7 8 9 8 7 6 7 9 7 6 5 4 5 5 4 5 4 3 2 1 2 5 6 3 2
6 6 6 9 6 3 4 2 3 3 4 6 6 6 5 4 7 7 7 9 11 10 8 9 10 11 10 11 16 17 17 18 18 18 17 17 16 15 15 14 15 14 14 14 14 15 14 14 14 14 14 13 13 12 11 11 10 10 10 9 8 7 8 10 10 9 10 9 9 8 7 8 8 9 11 10 7 5 6 9 8 7 6 6 7 5 4 4 4 3 2 1 3 3 2 0 1
6 6 8 6 4 4 4 4 5 4 2 4 6 6 6 6 6 7 8 8 9 10 10 10 11 12 13 13 16 17 17 18 17 17 17 17 17 15 14 14 15 14 15 15 13 15 15 14 14 15 15 14 14 14 12 12 11 11 11 10 9 8 8 9 10 10 11 11 10 9 8 9 8 7 9 8 5 5 5 7 7 6 5 6 7 4 4 4 2 2 3 2 2 1 1 1 1
6 9 11 6 3 5 5 6 5 5 1 3 6 5 5 6 6 8 10 9 4 2 6 9 9 10 15 16 17 17 17 18 18 19 18 18 18 16 15 14 14 14 15 16 15 15 16 15 15 15 16 16 15 15 14 13 12 12 11 11 10 9 9 9 10 10 11 12 11 10 9 9 9 7 7 7 7 7 6 6 6 5 5 5 5 4 4 4 3 3 3 2 2 3 2 2 3
7 8 11 8 5 4 5 6 4 4 3 4 5 3 4 6 7 8 11 11 1 7 5 1 4 8 17 18 17 16 17 19 20 22 21 20 19 17 16 16 16 16 16 16 16 16 17 17 16 15 16 17 16 15 15 14 13 13 12 12 12 10 9 9 9 10 10 11 12 11 11 9 9 8 8 9 8 7 6 7 6 6 6 5 5 5 6 6 5 5 4 4 4 3 4 4 3
10 7 7 8 5 2 4 4 3 3 4 2 2 2 5 8 5 5 10 13 5 5 6 4 0 8 16 17 16 17 18 20 22 23 22 19 19 18 16 16 16 15 15 16 17 16 17 18 17 17 16 17 17 16 15 15 14 14 14 13 13 12 10 9 9 9 9 11 12 12 11 9 8 8 8 8 8 7 7 8 7 6 6 6 6 6 6 7 7 6 5 5 5 4 4 3 3
12 9 4 5 4 3 3 3 3 4 3 1 1 4 6 5 1 2 8 11 9 5 6 3 2 8 13 14 16 16 17 19 20 20 20 19 18 18 17 16 15 15 16 17 17 17 18 18 18 18 17 16 17 17 16 14 14 14 15 14 13 13 12 10 10 9 9 10 11 12 12 9 8 8 8 8 8 8 8 9 9 8 7 7 7 7 6 6 6 6 6 5 5 4 4 3 3
10 12 7 6 7 5 4 3 5 4 3 3 5 7 6 3 1 5 11 10 8 7 7 6 6 8 11 12 14 15 15 17 19 20 20 19 18 19 18 17 16 17 17 17 17 16 18 19 19 19 18 17 17 17 16 14 14 14 14 14 13 13 13 11 10 10 9 9 10 12 13 11 8 8 8 8 8 9 9 10 9 8 8 9 9 7 7 6 5 6 6 5 5 4 4 3 3
3 11 8 7 8 6 5 5 6 4 4 5 7 8 5 5 2 7 8 6 7 9 8 9 8 9 10 10 12 14 15 17 19 19 19 19 18 19 20 19 18 18 18 18 18 16 18 20 20 20 18 18 17 17 16 15 14 14 14 13 12 13 12 12 12 11 10 9 9 11 14 13 9 8 8 8 8 8 8 8 7 7 7 8 9 8 7 7 5 5 5 5 4 4 3 3 3
2 8 7 8 8 6 7 7 7 5 5 7 8 7 4 5 6 9 4 5 7 9 10 11 10 10 10 10 10 11 13 16 18 18 19 21 19 20 21 21 21 20 20 20 19 18 19 21 21 21 19 19 18 17 16 16 14 14 13 13 12 12 12 12 12 13 12 11 10 11 13 14 11 9 9 9 8 7 6 6 6 7 6 6 7 8 8 8 6 5 7 8 6 4 3 3 3
3 6 6 10 9 9 12 11 9 8 6 8 5 6 8 9 10 11 6 6 7 9 10 11 11 10 10 10 9 9 11 14 17 18 20 21 20 20 22 22 22 21 20 20 20 20 21 22 22 21 21 21 21 18 16 16 14 14 14 13 12 12 12 12 13 14 14 14 14 13 13 14 14 10 9 10 9 7 7 6 6 6 5 5 6 7 7 6 6 5 6 7 6 4 4 4 4
6 7 8 8 8 10 14 13 10 9 6 9 6 7 10 12 15 14 9 9 9 8 10 10 10 10 10 10 9 9 11 13 16 19 20 20 20 20 21 21 21 21 18 19 21 21 21 24 23 23 23 23 23 21 17 16 15 14 14 14 13 13 13 13 14 15 15 15 15 15 15 15 15 13 11 10 9 9 8 8 7 7 6 6 7 7 6 4 4 4 4 4 4 4 5 5 6
7 8 7 6 7 8 13 14 12 10 6 9 8 8 9 10 14 15 10 10 11 10 10 10 10 10 10 9 10 9 10 13 16 18 18 19 19 20 20 21 21 21 19 19 22 22 21 25 26 24 25 24 24 24 20 17 16 15 15 14 14 15 15 14 15 16 16 17 16 16 17 16 16 15 13 12 11 10 9 9 9 8 8 8 7 6 6 5 5 5 5 5 6 6 6 6 7
8 7 7 8 7 5 10 14 14 12 6 10 10 7 9 12 9 12 9 9 11 10 10 10 10 11 11 10 10 10 10 14 16 16 17 18 19 19 20 21 22 23 22 20 21 22 22 24 28 26 26 26 25 26 25 20 17 16 16 16 16 16 17 16 16 16 15 16 17 17 18 17 17 17 15 14 12 11 10 10 10 9 9 9 9 8 7 7 7 7 7 7 7 7 7 8 8
8 8 7 8 9 5 7 10 14 13 7 12 14 8 7 8 6 10 8 9 10 10 10 11 11 11 11 10 9 9 10 12 14 16 17 18 19 19 19 20 22 23 23 21 20 23 23 23 27 27 27 28 26 26 27 24 20 18 17 19 19 17 18 17 17 16 15 17 19 19 19 19 19 18 17 17 14 12 11 11 10 10 11 10 10 9 8 8 8 8 8 8 8 8 8 9 9
8 8 7 8 11 9 6 7 10 12 8 11 14 11 10 6 5 8 7 9 10 10 11 11 10 9 9 8 8 9 10 11 12 16 19 19 19 19 19 19 21 21 21 21 20 22 23 22 25 28 27 27 26 25 27 28 24 20 18 19 21 20 20 19 18 19 18 19 19 19 20 20 21 20 19 19 17 14 12 12 11 11 11 11 11 10 9 9 9 9 9 9 9 8 9 11 11
10 9 7 7 11 13 9 5 8 13 11 11 12 12 15 14 9 7 8 9 9 10 10 10 9 8 8 8 8 9 10 11 12 15 20 21 21 21 20 19 20 21 21 22 21 20 21 20 22 25 25 24 25 24 25 28 25 21 19 18 19 20 21 19 19 21 21 19 19 20 20 20 22 22 21 20 19 16 14 13 12 12 13 12 13 11 10 10 10 10 10 10 10 9 10 11 12
12 11 10 9 8 11 9 4 7 12 10 11 13 12 15 16 16 13 10 11 10 10 9 8 8 8 8 8 9 9 10 11 12 15 18 21 22 21 21 20 20 21 21 22 22 21 20 20 20 22 22 22 23 22 22 25 23 21 20 19 19 20 20 18 19 21 19 17 18 20 20 20 19 20 22 21 20 18 15 14 14 14 14 14 15 13 11 12 12 12 12 11 11 11 11 11 10
11 12 12 11 7 8 9 6 7 7 7 10 13 15 16 15 15 15 12 11 11 12 12 10 9 8 8 8 9 10 11 10 10 14 17 19 21 20 20 19 20 21 22 22 23 23 22 21 21 21 21 22 24 23 22 23 23 23 23 22 21 20 20 19 19 21 20 19 18 19 20 19 17 17 20 21 22 21 17 15 15 16 16 16 16 14 13 13 13 12 11 11 11 11 12 11 10
9 11 10 10 9 6 5 6 7 5 5 8 11 14 16 15 14 14 13 13 13 14 14 13 12 11 9 10 11 10 9 7 7 12 15 17 18 19 19 19 20 22 23 23 24 24 24 23 23 23 22 24 26 25 23 23 23 25 24 23 22 21 20 22 22 21 22 22 21 22 21 19 18 17 18 20 22 23 21 19 18 17 16 16 17 17 15 14 13 13 12 12 11 12 12 11 10
9 9 8 8 8 4 4 7 8 5 4 7 10 12 13 14 14 14 14 15 14 14 14 14 13 13 11 11 11 10 10 8 9 11 13 16 17 19 19 19 21 22 22 24 25 25 25 25 24 24 24 25 25 26 25 23 22 24 23 21 21 21 20 23 25 24 24 24 25 25 23 20 20 20 19 20 24 25 25 24 23 20 17 17 20 20 19 18 17 15 14 14 13 12 11 10 10
8 8 7 7 7 7 5 6 8 6 5 5 7 9 11 12 13 13 15 16 15 14 15 14 12 12 13 12 11 11 12 10 10 11 12 15 17 19 21 20 20 21 22 24 25 25 25 26 26 25 25 25 25 26 27 25 21 22 21 19 20 21 20 21 23 24 23 25 26 26 24 21 20 21 20 21 25 27 26 26 26 23 18 19 23 23 21 21 19 17 16 15 14 14 12 11 12
10 10 9 7 7 8 3 4 5 4 5 5 5 8 9 12 14 14 13 14 16 15 15 15 13 12 12 12 12 12 12 11 11 12 12 13 16 20 22 22 21 22 24 25 25 26 26 27 28 28 27 26 25 26 28 27 23 22 21 19 19 20 20 21 22 23 23 25 26 25 25 24 22 22 21 22 25 27 26 26 26 23 19 21 25 25 23 20 18 18 17 16 17 17 15 13 13
10 12 12 9 8 8 3 4 3 3 5 5 5 8 7 9 14 14 12 13 16 15 17 17 15 14 13 12 13 12 11 11 10 11 11 13 16 19 20 21 22 23 25 26 26 27 27 27 28 28 27 26 25 26 28 27 25 25 24 22 23 23 23 25 26 25 24 26 27 25 25 26 24 24 23 23 24 27 25 23 23 22 20 21 24 26 25 20 19 20 18 18 19 19 16 13 13
8 10 13 11 8 8 6 4 3 5 5 3 4 8 6 5 9 10 8 11 14 14 16 18 17 16 14 12 12 12 12 11 10 10 11 12 15 17 18 21 23 25 27 26 26 27 28 26 26 27 27 26 26 26 27 27 24 25 26 26 26 26 26 26 26 25 23 24 25 24 23 24 24 25 23 22 23 27 27 25 24 24 22 21 21 23 25 22 21 21 20 19 20 20 18 16 15
4 8 12 12 8 7 6 4 4 6 4 0 6 7 8 8 8 9 9 10 12 12 14 17 17 17 16 15 14 14 13 12 10 10 11 12 14 16 19 22 24 25 24 23 25 27 27 26 25 26 27 26 26 25 27 28 26 27 28 28 28 28 27 24 22 24 23 23 24 24 23 23 23 23 23 23 22 25 28 27 26 26 23 22 21 22 23 22 21 21 22 22 21 22 21 20 18
1 6 10 11 9 7 4 3 5 4 4 5 7 5 6 9 6 9 13 14 14 15 16 17 16 17 18 17 16 15 13 12 11 10 11 12 14 18 19 20 21 21 20 22 25 25 24 25 25 25 26 26 27 28 30 31 32 31 28 28 29 28 28 24 21 21 23 24 26 26 24 24 23 23 24 26 25 25 28 29 28 27 26 24 24 24 25 25 23 22 23 23 22 21 22 21 19
2 5 6 6 4 3 2 3 4 2 4 9 7 6 6 8 5 7 10 12 14 15 15 16 16 17 18 18 17 15 13 11 11 11 11 11 14 16 16 16 17 18 20 22 22 21 22 23 24 26 27 27 27 30 32 32 33 32 28 28 30 29 27 24 21 21 22 24 27 26 25 25 25 24 25 28 29 28 30 31 31 31 31 28 27 27 27 27 26 25 25 24 22 22 22 22 20
7 7 7 7 4 4 3 1 0 2 8 8 8 11 8 7 5 6 8 10 10 11 12 12 15 16 16 16 16 16 14 11 9 9 10 10 11 12 13 14 15 16 18 20 20 20 21 22 24 26 28 27 27 28 31 32 32 32 30 30 31 30 28 25 24 24 24 25 27 27 26 26 25 24 25 29 31 31 31 32 33 34 34 33 31 30 30 30 29 28 27 26 26 25 24 22 20
10 7 6 5 3 3 2 2 3 5 8 2 3 10 11 8 4 3 7 8 7 8 11 11 13 14 14 14 15 15 14 13 11 9 8 8 8 9 10 12 13 13 15 18 20 21 20 21 23 25 26 28 27 26 28 30 31 31 32 31 29 28 26 25 25 25 25 25 26 25 24 25 26 24 25 28 30 31 32 32 32 32 32 33 34 33 33 33 32 30 30 30 30 28 26 23 21
9 7 8 7 4 4 4 4 4 7 6 2 2 3 8 12 9 7 11 11 7 8 10 10 10 11 11 11 11 11 9 8 7 5 5 6 6 7 9 11 12 13 15 17 20 23 22 21 22 23 26 27 26 25 25 27 29 30 31 29 28 26 25 24 24 23 23 24 25 25 24 24 25 26 27 30 32 32 33 33 32 30 30 32 34 34 33 34 33 32 32 32 31 29 28 26 24
12 10 10 9 6 5 6 6 4 7 5 3 4 2 6 10 9 11 16 17 14 11 9 9 8 9 7 3 2 1 0 0 1 3 3 4 5 7 9 11 12 14 16 17 19 22 24 23 21 23 25 23 23 23 24 25 26 27 28 27 26 25 26 25 25 24 24 24 26 26 25 24 24 26 28 29 30 30 30 32 30 28 29 30 32 32 32 33 33 31 31 31 31 29 27 26 26
11 9 8 8 5 5 7 7 7 7 2 3 5 4 6 6 1 3 8 10 10 7 6 7 6 6 4 0 1 1 1 1 1 2 3 4 6 8 8 9 11 12 13 15 17 19 22 23 21 22 22 21 21 22 22 23 24 25 26 26 27 27 26 24 24 25 24 26 27 26 25 25 24 25 26 26 28 28 27 29 29 28 28 28 29 30 30 30 31 29 29 29 30 29 27 25 25
5 4 6 7 4 5 4 2 4 3 0 3 6 4 6 5 6 8 7 7 7 8 7 8 9 8 4 3 3 3 2 3 4 4 5 5 6 7 7 8 9 9 10 13 15 17 20 20 18 19 19 18 18 20 21 22 22 22 24 25 27 28 27 23 22 25 25 26 27 24 24 26 24 24 25 25 28 28 27 28 28 28 28 27 28 29 30 30 29 28 28 28 30 30 28 25 25
4 4 7 4 1 3 5 2 2 1 5 5 6 6 7 6 11 13 13 13 10 9 9 10 11 10 7 5 4 4 3 4 5 5 5 5 6 6 7 7 7 8 8 10 12 14 16 16 14 15 16 16 17 18 19 20 21 21 22 24 26 27 27 24 22 24 26 27 27 24 24 26 24 23 23 24 25 27 27 28 27 27 27 27 27 28 30 30 29 29 29 28 29 29 27 26 24
6 7 7 4 4 2 3 4 4 4 7 6 7 9 7 5 6 4 9 15 13 10 10 9 9 9 9 6 4 5 5 5 5 5 4 3 4 4 5 5 5 6 6 7 8 10 12 13 14 14 15 16 17 17 18 19 20 21 22 23 24 26 26 25 24 24 25 26 26 25 25 25 25 24 24 23 24 25 26 28 28 27 26 27 28 28 29 30 30 29 30 30 29 27 26 25 24
2 5 8 6 2 3 4 5 6 7 8 6 7 10 7 7 7 2 5 11 12 11 10 8 7 8 8 6 5 6 6 5 4 3 3 2 2 2 3 3 4 4 5 6 7 9 10 12 13 13 13 13 14 15 16 18 19 20 21 22 23 24 24 24 25 25 25 26 26 26 26 26 26 26 25 25 25 26 27 28 29 28 27 28 29 29 30 30 31 30 30 30 29 28 27 26 25
2 3 9 7 4 4 6 6 4 5 6 5 5 6 5 7 9 9 10 10 10 11 11 9 7 6 6 5 5 5 5 4 3 2 2 2 2 2 2 3 3 5 6 7 8 8 8 9 10 11 12 11 10 12 13 14 16 17 18 19 20 21 22 23 24 25 26 27 26 26 26 27 27 26 25 26 27 28 28 29 30 30 30 30 30 31 31 31 30 30 30 30 29 28 27 26 26
5 7 11 9 4 1 4 7 6 5 5 5 5 5 5 2 2 7 12 11 8 8 8 8 5 4 3 2 1 4 5 4 3 3 2 2 1 2 2 3 4 5 6 6 6 6 6 7 8 9 10 10 11 11 12 12 13 15 16 17 17 18 20 22 24 25 26 26 25 26 27 27 27 26 25 25 26 28 29 30 31 31 31 31 30 31 32 31 30 29 28 28 28 27 26 26 26
9 9 9 10 8 4 4 8 8 5 4 4 4 6 4 2 1 3 4 4 2 2 2 1 3 2 1 1 3 4 4 4 4 3 2 1 1 2 2 2 2 3 3 3 5 6 6 7 8 9 10 10 11 11 12 12 12 13 15 16 16 18 20 22 23 25 25 25 24 25 26 26 26 26 26 25 25 26 28 30 31 31 30 30 31 31 31 31 29 27 26 26 27 26 25 26 26
Wind_Direction
329 329 328 324 314 291 275 271 267 211 249 264 99 148 113 80 90 136 127 137 141 107 77 101 109 104 51 357 23 36 32 24 14 4 91 110 138 131 118 126 132 133 132 132 135 135 133 131 128 127 120 117 119 115 111 105 98 104 108 103 97 97 96 96 95 93 95 95 95 96 92 90 90 91 92 90 86 84 81 80 81 81 80 82 83 82 82 81 80 82 83 81 80 78 76 74 71
328 328 319 313 292 277 298 264 276 226 234 234 124 70 98 120 183 153 135 134 110 108 126 123 121 106 14 348 337 23 60 47 47 70 90 127 136 127 125 132 135 134 131 130 139 141 135 138 134 127 125 121 119 114 108 107 103 96 101 102 99 100 100 97 93 92 93 97 99 97 95 93 91 88 89 90 87 85 83 82 82 83 86 86 85 85 83 81 82 83 82 82 81 78 76 73 70
324 332 309 290 264 258 293 234 263 264 253 238 111 95 118 158 169 126 110 94 99 117 135 128 130 122 304 187 167 5 83 64 74 90 108 141 141 133 135 136 137 135 131 131 140 141 136 144 139 130 129 124 120 116 107 110 111 104 103 100 101 104 102 98 99 102 100 102 102 98 99 95 91 89 89 88 86 84 83 84 84 86 87 88 86 85 83 82 84 84 82 81 80 77 75 72 69
324 332 308 288 262 237 265 240 264 280 275 351 99 116 141 163 122 98 92 94 112 131 139 148 144 103 303 44 40 41 95 78 82 100 132 152 139 136 138 138 139 135 133 135 139 139 139 147 140 132 131 126 123 119 115 118 120 121 118 108 107 108 102 100 104 107 104 104 102 99 99 95 94 92 89 88 89 89 88 86 86 85 85 88 88 86 85 85 85 84 82 81 80 77 73 70 65
311 314 308 294 277 267 280 269 270 270 310 8 54 122 144 137 117 103 100 106 128 146 151 175 149 108 275 8 3 10 90 99 95 107 134 130 123 134 139 140 141 137 136 137 138 136 140 148 141 136 135 131 127 123 126 131 132 130 124 118 116 116 112 111 110 104 101 104 104 103 101 99 98 94 92 90 93 96 96 92 89 86 84 86 86 87 88 89 87 85 84 83 80 75 70 65 60
289 283 286 284 287 341 260 250 244 238 26 3 12 104 140 124 120 121 117 109 131 148 159 191 147 126 164 72 40 34 56 103 108 116 129 126 128 136 139 142 143 139 138 138 139 138 142 149 146 142 138 134 132 130 135 138 137 131 123 123 125 122 120 122 118 108 107 113 115 111 106 105 102 98 97 91 89 92 94 92 89 88 85 85 86 88 90 89 88 87 85 81 76 71 66 61 59
297 282 253 256 229 231 250 248 255 226 63 14 15 63 130 129 127 136 138 134 146 158 208 196 163 168 134 118 101 70 61 59 103 123 124 133 137 138 141 143 143 139 139 138 138 141 144 149 150 147 139 132 134 133 137 138 136 137 132 130 133 128 125 126 120 115 114 114 113 111 110 111 108 104 103 96 91 91 91 91 90 89 88 89 91 91 91 89 88 86 82 77 73 68 64 63 63
292 289 270 276 235 203 257 254 263 284 74 59 48 43 63 128 144 157 161 164 162 168 194 182 203 224 115 140 136 101 87 66 97 113 120 135 139 141 144 145 142 140 139 138 141 146 149 151 151 147 140 137 140 134 131 136 131 141 141 133 134 133 130 125 119 118 115 113 110 108 110 110 108 105 105 102 96 94 92 92 93 91 90 91 92 91 91 89 86 84 80 76 71 68 68 69 69
244 262 227 268 255 218 249 246 232 220 113 124 108 83 56 156 166 170 171 164 155 169 180 174 208 228 121 140 102 118 119 94 112 114 126 137 141 144 144 148 144 141 140 138 140 146 153 154 153 148 145 144 144 137 129 127 122 135 140 132 130 131 129 122 119 118 115 116 113 111 116 114 111 110 109 106 99 96 94 94 95 94 94 93 93 93 93 90 86 85 82 76 72 72 73 73 72
219 235 248 252 259 242 234 232 197 164 142 137 113 123 153 184 188 181 178 162 157 165 156 162 203 236 138 134 109 120 120 122 135 127 135 140 144 146 143 150 145 142 143 142 142 144 154 157 156 152 149 148 148 149 142 129 120 129 132 130 128 128 127 125 124 120 117 117 116 119 124 125 120 117 115 110 104 101 98 97 96 96 97 96 96 95 95 92 88 88 83 78 76 76 76 74 71
230 202 256 254 244 244 236 215 176 166 140 149 152 141 161 182 191 195 183 162 165 161 136 160 198 212 218 121 104 106 118 140 147 140 144 144 147 148 144 147 146 146 142 145 147 146 152 157 160 156 153 154 157 164 159 143 132 131 129 131 130 129 130 129 129 127 130 129 133 135 130 131 127 123 120 116 109 104 102 101 101 101 101 100 101 101 99 97 94 92 85 81 80 78 76 74 71
244 200 211 239 241 245 255 249 176 160 155 181 168 142 164 179 186 197 188 173 174 177 162 182 188 192 210 157 115 123 136 157 152 147 147 146 149 149 148 145 148 148 145 149 148 149 151 157 163 161 160 162 166 171 170 161 154 152 142 140 138 136 137 136 136 137 142 144 145 139 133 135 134 132 129 124 117 110 111 111 109 108 108 108 111 115 111 106 101 95 88 84 81 79 76 75 72
241 220 216 234 255 263 284 295 187 176 199 186 137 129 166 179 188 194 189 182 182 195 176 177 138 209 214 125 123 136 148 163 155 152 149 150 151 149 151 147 151 148 148 154 152 154 153 158 163 166 170 169 174 179 177 176 174 175 163 151 151 149 151 150 146 149 155 159 154 140 137 139 139 141 136 131 128 126 127 125 121 117 115 114 118 124 118 110 105 99 92 87 83 81 78 76 72
245 227 233 238 248 265 255 251 210 219 209 130 102 130 169 181 192 194 195 192 179 174 117 142 157 214 208 136 152 157 158 163 158 156 154 153 149 150 151 149 154 150 152 159 160 162 160 161 163 169 175 171 173 180 181 182 184 188 185 170 164 161 164 165 161 165 165 166 163 145 140 143 143 142 138 134 137 139 137 137 135 130 124 117 120 124 122 114 108 103 94 88 84 81 78 75 71
256 232 239 248 236 242 230 238 235 231 185 110 104 148 162 164 185 192 207 199 135 97 94 108 187 230 198 176 168 148 155 158 157 158 156 152 148 150 150 152 156 154 159 164 166 168 168 167 167 170 172 172 171 172 179 186 194 195 194 190 185 176 169 176 177 177 173 171 167 152 146 149 149 145 142 139 145 151 146 146 147 146 138 125 126 131 130 121 112 107 96 89 86 81 77 74 70
268 251 230 242 236 227 207 211 218 231 147 105 119 154 164 154 175 191 113 13 96 115 157 156 184 291 15 36 60 127 147 151 154 158 155 150 148 148 149 157 161 160 166 172 174 174 175 171 170 171 170 175 174 172 173 184 197 191 193 200 205 199 189 186 182 181 182 180 172 165 158 151 158 153 150 151 155 164 165 165 160 159 157 143 139 142 145 135 123 115 102 94 89 84 79 73 69
262 242 231 233 229 222 195 197 202 195 110 108 136 164 176 156 171 198 67 260 163 145 191 149 142 323 42 60 88 125 141 148 153 158 157 155 153 155 158 164 168 167 171 179 181 179 181 178 175 176 175 176 175 176 170 179 196 190 193 201 206 209 207 198 185 183 186 190 183 167 151 149 159 153 155 159 160 176 183 189 179 166 169 170 165 152 155 151 136 131 121 101 88 83 74 60 47
223 218 225 227 225 220 207 202 192 140 118 121 143 176 194 161 168 172 150 210 200 165 188 164 139 136 88 92 122 130 142 153 158 163 163 164 163 163 167 172 175 172 173 181 185 184 186 186 186 183 180 178 176 177 173 180 193 186 190 196 201 206 208 206 192 185 185 192 186 157 149 162 161 163 176 172 174 187 186 199 199 186 181 188 192 168 155 158 157 148 139 107 90 73 66 53 12
218 225 224 227 231 206 193 192 155 132 138 125 134 178 204 163 161 167 187 199 192 201 198 186 187 167 132 132 141 139 151 161 165 172 170 170 171 170 171 174 178 174 174 180 185 188 187 188 192 189 185 183 180 180 178 180 183 182 185 189 195 199 202 201 189 183 183 189 184 161 168 181 172 188 196 182 192 199 188 201 208 208 208 210 220 208 168 164 179 178 175 140 65 61 64 67 1
221 236 231 230 226 123 107 138 117 101 126 137 138 165 190 164 151 168 205 204 194 213 207 192 200 185 163 151 151 150 161 170 174 180 179 176 176 175 175 175 178 176 175 178 182 187 189 190 192 193 192 189 186 186 184 183 182 184 187 187 192 192 193 190 186 188 187 189 187 176 188 193 184 206 210 195 203 206 194 205 213 220 223 233 238 231 218 201 205 227 243 344 46 51 59 51 10
213 222 237 248 226 176 144 143 128 114 118 147 135 149 183 175 160 177 208 216 206 220 216 201 207 189 166 157 158 161 169 176 182 189 190 185 182 182 182 178 179 176 173 176 180 186 190 191 192 194 196 194 193 192 191 190 187 187 190 192 192 192 192 189 190 192 191 192 191 187 197 202 191 205 213 198 195 190 192 206 213 220 225 245 242 218 232 243 236 273 295 354 33 302 290 283 304
222 220 240 277 279 223 154 129 125 121 123 154 148 158 166 161 184 201 211 221 205 247 231 204 210 186 163 162 162 165 175 180 187 194 197 194 189 187 184 180 180 177 174 176 180 185 189 191 191 192 195 197 197 196 196 195 191 192 194 194 194 196 196 193 193 193 194 194 193 193 196 201 195 195 201 194 189 184 187 193 198 205 203 233 231 194 215 233 226 241 266 284 262 262 275 272 276
226 220 230 250 274 255 139 129 133 133 173 179 166 146 138 170 203 206 214 229 206 43 16 209 218 173 157 161 162 167 179 184 190 196 200 200 196 193 188 184 183 180 178 179 180 183 188 190 190 190 193 197 199 198 198 198 197 197 197 197 196 197 198 198 198 195 196 196 194 195 195 196 197 198 201 202 197 185 185 189 195 202 195 208 210 198 210 210 212 223 226 238 246 254 266 272 281
224 225 215 224 243 258 128 125 143 173 205 173 122 132 180 204 207 192 214 234 231 76 55 33 336 158 155 162 168 174 181 186 194 197 200 203 202 199 195 192 188 183 181 181 181 182 186 188 189 190 192 195 198 199 200 202 202 200 200 201 199 198 200 201 201 198 197 198 199 199 197 197 197 199 203 207 205 193 192 194 195 200 195 200 204 201 207 204 210 217 218 227 234 248 258 266 274
222 229 212 200 187 152 125 126 175 201 215 133 166 213 212 212 187 217 226 238 230 171 120 110 154 163 167 173 175 178 183 188 193 194 198 204 206 204 202 199 193 188 187 185 183 182 184 186 188 191 191 193 195 197 201 204 204 203 202 203 204 202 203 202 201 200 199 200 205 206 201 197 197 197 199 202 205 202 205 208 206 205 200 202 207 205 207 207 210 212 213 221 224 236 249 254 258
216 222 218 194 186 166 152 180 195 201 208 181 204 223 218 176 39 253 238 237 214 181 164 163 171 179 184 185 181 183 186 189 191 192 196 201 204 204 203 201 198 196 193 189 185 184 184 185 188 191 192 192 192 194 198 202 204 205 204 203 204 205 205 202 200 200 203 202 204 212 207 198 196 196 195 196 205 211 216 221 217 214 216 218 216 212 211 203 206 215 211 217 226 231 241 251 261
220 219 217 204 199 177 182 205 191 194 214 201 215 228 201 152 198 239 224 210 185 177 186 183 183 195 198 194 189 189 191 192 190 189 192 198 203 204 203 202 203 201 195 192 190 188 187 186 189 191 193 192 192 194 197 199 201 203 205 204 203 205 206 203 203 201 203 202 200 213 214 203 196 196 194 192 200 209 218 222 217 218 228 232 221 213 217 206 197 213 209 209 218 229 243 254 261
253 210 207 210 210 193 202 215 196 200 210 198 222 243 198 158 214 231 173 139 179 185 186 183 190 202 203 200 194 193 197 194 190 189 192 196 200 202 203 203 204 202 198 195 192 190 191 191 190 191 192 192 192 194 197 198 200 203 202 204 206 205 206 205 209 208 203 202 200 209 215 207 200 198 198 195 192 195 208 214 216 223 224 226 219 211 219 214 199 210 220 221 220 230 253 256 262
214 192 210 210 215 220 214 216 206 209 206 176 201 253 226 202 216 226 182 153 188 193 189 186 191 200 202 202 195 197 201 194 190 195 199 198 198 201 204 205 203 202 200 197 194 193 195 197 194 192 193 195 197 195 197 200 199 201 201 202 206 204 206 207 211 216 212 209 206 206 211 209 204 201 203 204 199 197 206 211 218 229 220 213 218 214 216 213 204 214 232 238 235 243 257 253 267
199 197 229 209 209 230 216 213 203 202 196 161 182 249 234 218 216 211 179 167 188 198 199 194 192 194 197 198 195 200 201 195 196 201 203 200 199 201 205 206 202 202 201 197 197 195 196 201 198 195 197 200 203 199 195 200 200 200 202 201 204 203 204 208 213 220 221 218 215 213 213 211 209 205 205 208 206 206 211 215 220 227 222 214 217 219 213 206 210 215 229 242 245 254 260 265 274
197 196 229 214 215 230 206 201 189 189 181 157 192 247 247 237 215 193 170 169 184 200 206 199 196 192 191 193 193 200 200 200 205 207 205 201 200 201 203 204 202 201 200 198 199 196 195 202 202 200 202 203 207 207 200 200 201 200 202 200 202 206 208 210 215 220 224 226 223 222 222 218 215 212 207 207 209 211 214 219 221 222 222 218 217 217 210 212 226 231 236 245 252 256 260 270 273
199 190 210 213 221 217 186 188 188 194 179 166 194 234 247 253 216 166 157 174 186 205 212 204 202 194 190 191 194 200 200 203 210 212 209 205 203 202 202 202 201 200 201 199 198 197 195 202 207 206 207 207 208 214 212 204 202 201 204 207 207 211 212 212 218 221 221 227 228 229 233 231 226 222 216 211 211 213 216 221 222 221 219 217 217 217 216 222 231 235 239 243 252 261 262 263 266
202 207 212 197 203 199 166 180 197 199 174 176 202 231 245 243 184 146 161 185 192 211 217 212 209 201 195 192 195 200 200 201 207 211 208 206 206 206 205 203 201 200 201 199 196 198 196 199 208 208 209 211 209 214 217 210 206 206 206 215 219 216 217 218 221 221 216 223 230 233 236 239 238 234 229 225 220 216 220 224 224 222 216 212 216 217 218 225 233 235 238 239 246 262 268 267 269
191 212 223 195 202 211 177 169 194 196 185 189 206 233 253 243 155 147 175 197 203 212 219 220 212 205 202 197 198 200 201 203 205 207 205 205 207 209 208 205 203 202 202 202 199 199 198 197 206 209 209 210 207 210 218 217 214 211 209 218 224 223 225 225 224 226 225 225 230 232 234 239 242 242 238 235 229 221 221 225 225 222 213 209 214 217 220 228 235 236 238 242 244 252 265 268 271
187 196 209 202 206 218 207 157 171 186 198 212 208 223 243 248 231 199 182 189 211 217 218 225 217 208 206 204 208 204 205 211 208 203 201 203 206 206 207 204 202 202 201 203 202 202 203 199 202 208 205 204 204 205 215 219 216 212 211 213 218 222 225 224 224 228 231 228 228 231 232 234 241 244 241 238 234 226 221 223 223 221 217 212 214 214 219 230 235 237 240 244 247 252 260 265 271
189 190 204 214 209 218 214 126 142 182 196 217 220 227 237 241 243 238 205 181 204 224 221 221 216 213 213 210 214 211 214 220 212 203 201 203 205 204 204 202 200 200 201 201 201 202 204 202 200 203 203 202 203 201 206 212 210 207 210 209 209 215 218 218 223 226 225 223 224 229 231 231 235 240 241 238 236 232 222 219 220 221 222 219 216 214 221 232 234 239 243 243 247 253 256 261 268
191 200 213 224 222 218 206 139 130 183 208 217 221 235 241 242 243 244 229 197 202 220 222 219 214 213 216 215 216 215 220 225 211 203 203 203 204 203 201 201 199 199 201 200 200 202 202 203 202 202 202 205 207 205 203 205 203 203 207 207 208 210 212 216 220 222 220 218 219 224 228 227 223 226 235 235 236 236 226 216 215 218 224 223 220 219 224 230 231 237 242 241 244 250 254 257 258
199 213 217 223 229 219 186 151 140 169 223 232 229 239 245 246 246 244 239 224 217 222 224 223 219 218 216 216 220 220 223 219 200 202 205 203 202 201 200 201 200 200 200 199 200 202 202 203 204 203 202 204 208 208 207 206 205 207 209 208 209 210 211 214 217 220 220 220 220 222 223 221 217 218 225 227 231 235 230 221 215 216 221 221 222 225 227 227 228 232 233 236 238 239 247 255 248
208 218 214 220 224 203 152 151 156 169 218 245 247 253 256 254 252 247 241 237 232 229 230 230 225 223 221 216 217 219 220 208 198 206 206 204 201 198 199 203 204 204 202 201 202 202 203 205 205 204 203 205 207 208 209 210 210 212 213 210 210 211 212 216 222 227 227 226 227 227 224 219 217 218 220 225 228 230 230 228 224 223 221 218 224 229 230 231 231 229 229 234 238 234 236 242 235
213 211 210 222 215 215 214 166 162 179 223 271 282 275 271 267 263 253 243 241 241 236 232 233 228 226 226 220 216 215 217 212 205 209 208 203 199 197 201 204 203 204 205 205 205 203 203 205 204 205 206 206 207 207 208 210 212 214 215 215 214 215 217 219 225 231 230 228 228 228 225 219 217 219 220 224 228 228 230 232 231 229 221 221 229 231 231 233 233 231 229 228 232 237 235 232 228
215 212 212 217 210 222 233 132 154 192 221 247 279 280 269 259 256 251 241 234 234 233 229 228 225 224 226 224 223 221 221 220 213 211 207 201 199 199 203 203 200 202 206 207 205 203 204 205 205 205 207 207 206 208 209 207 209 212 212 214 218 220 222 220 220 224 223 223 225 224 222 221 220 221 221 222 229 233 233 233 232 226 219 226 233 231 229 231 229 228 227 222 223 232 235 235 229
212 212 215 216 215 220 192 130 159 246 232 193 222 267 264 243 244 243 239 232 228 224 221 223 223 221 219 220 222 220 223 226 222 218 207 198 199 200 202 202 200 203 207 206 203 204 206 207 206 205 205 208 207 208 208 206 206 208 207 208 211 216 220 221 219 218 218 220 224 223 222 223 222 222 221 221 227 232 231 226 223 219 218 225 231 230 229 227 225 225 224 222 222 224 227 235 230
217 199 201 213 225 224 206 179 202 260 264 142 192 258 272 258 251 246 239 237 233 224 221 224 226 223 216 214 217 214 218 221 222 222 211 202 199 195 199 201 201 206 207 204 202 206 209 208 206 205 205 208 209 208 205 205 206 208 209 210 212 215 219 222 222 220 219 222 224 223 222 222 221 221 220 218 222 226 226 222 220 220 219 221 223 226 227 223 224 225 222 223 224 221 221 230 232
212 152 171 197 216 220 213 211 238 265 306 271 204 242 277 270 258 254 252 250 245 234 227 228 229 229 223 216 214 210 213 213 210 214 210 207 202 196 200 203 205 210 207 200 201 206 207 207 205 204 206 209 210 207 203 204 207 208 209 213 216 219 221 224 223 222 222 224 225 222 221 219 218 219 217 216 216 219 222 222 222 223 221 220 219 221 225 222 221 223 223 225 226 224 222 226 231
190 132 164 188 204 216 215 221 243 277 327 266 220 199 262 266 247 240 242 242 245 238 233 234 230 229 227 223 218 209 210 211 207 210 207 203 203 203 205 205 207 209 205 200 203 205 204 204 204 203 206 208 208 208 206 206 210 210 207 211 218 221 224 224 224 224 223 225 226 223 221 219 218 219 218 218 216 214 219 220 219 219 219 219 217 220 226 224 220 218 219 223 224 224 222 221 225
146 122 126 130 154 166 168 220 244 277 272 259 235 197 242 274 252 222 224 229 237 238 238 238 231 223 222 224 222 213 207 208 208 212 211 200 200 204 204 203 204 204 206 205 202 201 200 201 202 204 207 208 208 210 210 209 211 212 208 210 217 221 222 221 220 223 223 222 224 224 222 222 221 220 221 222 219 216 219 221 219 219 221 221 219 222 223 221 220 218 217 220 219 218 216 217 220
134 120 104 104 117 117 128 194 70 273 259 255 235 217 230 278 257 204 219 225 226 239 244 240 231 223 219 220 221 216 208 205 202 205 211 198 188 190 192 199 203 203 207 207 203 202 201 201 203 207 210 211 211 212 211 211 211 212 212 212 217 219 219 217 215 218 220 218 221 222 223 223 222 221 224 225 222 220 221 223 223 223 224 225 224 224 221 217 218 220 221 221 218 217 216 216 218
144 142 134 134 132 119 150 171 139 237 252 263 238 218 213 242 245 181 231 234 214 237 250 244 234 225 219 218 219 218 214 210 200 191 195 186 174 173 182 197 202 199 201 205 209 210 205 205 207 210 213 214 213 212 211 212 212 214 216 216 219 219 217 215 214 216 217 217 218 218 219 220 220 220 223 225 223 221 220 221 223 224 224 224 225 227 225 222 223 226 226 223 220 223 223 220 217
172 168 166 174 176 159 192 192 179 234 238 90 64 206 215 242 256 248 248 246 231 235 247 251 246 238 230 219 217 218 216 212 194 161 158 165 167 174 188 201 199 198 202 205 212 216 212 210 209 212 216 215 214 214 213 214 214 216 218 219 221 221 219 218 219 218 217 218 218 215 213 215 216 217 219 221 221 218 217 218 220 222 222 221 222 225 228 228 229 230 230 227 225 226 226 223 219
188 185 184 187 177 169 198 196 206 241 226 130 119 151 253 262 267 252 244 246 246 239 239 245 247 249 251 231 206 233 17 49 87 92 124 155 176 185 192 200 196 199 205 205 210 215 217 216 212 215 220 218 215 215 215 215 217 218 219 220 223 225 224 224 224 224 221 221 222 216 212 211 213 216 219 221 220 216 217 219 219 220 220 219 221 224 227 229 229 229 231 230 228 225 223 221 219
190 193 194 194 183 187 200 196 210 227 191 140 157 169 237 241 329 297 254 256 259 254 252 254 254 253 250 12 12 337 348 315 129 145 188 194 190 186 186 192 195 198 200 203 208 213 218 219 216 217 222 220 216 216 216 217 218 219 219 221 225 228 228 224 226 230 227 225 226 221 216 216 216 218 221 223 221 217 218 221 221 223 221 220 222 224 226 228 227 227 228 228 226 223 221 223 224
190 177 187 201 211 206 201 201 209 210 359 191 192 225 248 253 310 302 274 268 259 248 249 247 250 246 219 207 226 221 233 219 190 190 205 200 184 181 187 193 199 200 197 204 210 213 217 219 217 219 222 221 217 216 217 218 218 219 218 219 222 227 229 226 226 232 232 230 230 225 221 223 221 221 224 225 223 220 221 222 224 225 223 223 225 224 224 226 226 226 225 224 224 222 223 227 228
170 172 191 193 329 222 205 206 111 94 275 234 194 239 263 274 284 266 242 245 244 233 235 236 243 241 221 213 200 185 206 208 195 196 195 185 176 182 193 196 200 201 201 208 212 216 219 218 217 219 220 220 218 216 216 217 218 219 218 218 219 222 227 227 227 232 234 233 232 228 225 226 225 222 223 225 225 223 222 223 225 225 223 225 226 225 225 226 226 227 225 222 221 222 226 230 230
161 180 178 128 28 322 224 219 184 196 252 243 206 232 250 252 268 249 217 232 234 223 227 233 239 236 226 215 179 179 198 199 200 200 183 169 174 188 195 198 204 201 199 200 202 213 217 216 218 219 218 219 217 216 216 216 217 218 219 218 218 219 222 223 225 229 232 233 232 229 228 227 225 222 221 224 224 222 222 224 225 223 222 223 224 225 227 228 227 227 225 223 225 227 229 230 230
173 165 153 148 199 202 183 210 212 210 231 250 232 233 242 233 239 254 204 222 230 230 231 229 229 232 228 219 199 192 188 185 199 197 170 150 160 180 184 189 191 188 197 198 198 212 218 218 220 218 218 220 219 218 218 218 217 217 219 219 218 218 220 222 224 225 228 229 229 228 227 226 224 222 222 224 225 223 222 224 224 222 222 223 223 224 227 228 228 227 226 226 228 230 229 229 230
347 161 171 194 231 204 194 205 222 227 228 249 244 226 235 235 234 239 232 224 220 224 227 223 220 226 229 227 211 185 163 166 175 157 141 122 129 158 158 173 182 186 207 214 210 217 222 223 226 224 224 224 222 221 220 220 220 219 220 220 220 221 222 224 226 225 226 228 227 226 224 223 222 223 224 225 225 225 222 222 222 221 223 226 225 225 227 228 226 226 226 226 227 225 225 227 226
176 186 183 190 198 190 218 214 219 237 237 246 250 243 242 235 234 236 237 239 228 222 230 218 197 200 214 229 184 134 127 135 131 119 118 109 131 165 155 182 211 209 213 215 208 210 214 222 228 230 230 228 226 226 224 224 225 223 223 221 221 223 224 226 227 227 227 228 228 227 225 223 223 225 225 223 224 225 224 224 224 225 227 229 228 226 226 226 224 224 225 225 225 224 225 225 220
182 189 184 185 186 171 195 209 206 211 236 249 258 265 251 146 129 230 229 263 295 1 323 184 125 129 152 58 61 90 110 122 114 113 122 109 154 167 151 173 204 196 186 195 203 206 213 222 227 230 232 231 232 232 229 226 225 225 225 224 224 226 227 228 229 228 228 228 228 227 226 226 226 225 224 223 225 228 230 229 229 230 230 230 229 227 225 223 221 221 222 223 224 225 224 220 214